Location: Kershaw
(34.5481°N, 80.5823°W)
Time: 13:36:58
(UTC+00:00)

Transit 4A - Pass Details

Date: 07 October 2022
Orbit: 871 x 972 km, 66.8° (Epoch: 29 November)

Event Time Altitude Azimuth Distance (km) Brightness Sun altitude
Rises 04:03:20 0° 264° (W) 3,594 - -57.1°
Reaches altitude 10° 04:08:00 10° 296° (WNW) 2,627 - -57.6°
Maximum altitude 04:10:01 12° 315° (NW) 2,499 - -57.8°
Drops below altitude 10° 04:12:02 10° 335° (NNW) 2,606 - -58.0°
Sets 04:16:38 0° 8° (N) 3,524 - -58.4°
